Flag for Germany Weather past 2 weeks in Pirmasens, Rhineland-Palatinate, Germany

Now
63 °F

Scattered clouds.


Feels Like: 63 °F
Forecast: 40 / 66 °F
Wind: 15 mph from West

Location: Ramstein

Current Time: May 30, 2015 at 3:39:20 PM

Latest Report: May 30, 2015 at 2:58 PM


Visibility: N/A

Pressure: 30.00 "Hg

Humidity: 40%

Dew point: 38 °F

Location of PirmasensLocation

Historic Weather in Pirmasens — Graph

°F

Pirmasens temperature yesterday

Maximum temperature yesterday: 64 °F (at 1:58 PM)
Minimum temperature yesterday: 45 °F (at 3:58 AM)
Average temperature yesterday: 56 °F

Past Weeks' High & Low Weather Summary

 TemperatureHumidityPressure
High72 °F (May 18, 5:58 PM)100% (May 16, 1:58 AM)30.35 "Hg (May 16, 1:58 AM)
Low32 °F (May 21, 3:58 AM)33% (May 18, 5:58 PM)29.69 "Hg (May 19, 2:58 AM)
Average55 °F69%30.07 "Hg
* Reported May 15 2:58 PM — May 30 2:04 PM, Pirmasens, Weather by CustomWeather, © 2015

Note: Actual official high and low records may vary slightly from our data, if they occured in-between our weather recording intervals... More about our weather records

Advertising

Pirmasens weather history for previous 24 hours

 ConditionsComfort  
Time TempWeatherWind HumidityBarometerVisibility
2:04 PM
Sat, May 30
59 °FBroken clouds.16 mph45%30.00 "HgN/A
12:58 PM57 °FBroken clouds.16 mph55%29.99 "HgN/A
11:58 AM57 °FPassing clouds.13 mph55%29.99 "HgN/A
10:58 AM54 °FBroken clouds.9 mph63%29.99 "HgN/A
9:58 AM54 °FBroken clouds.9 mph72%29.98 "HgN/A
8:58 AM52 °FPartly sunny.9 mph77%29.96 "HgN/A
7:58 AM52 °FPartly sunny.10 mph75%29.94 "HgN/A
6:58 AM51 °FPartly sunny.10 mph80%29.91 "HgN/A
5:58 AM52 °FMostly cloudy.9 mph83%29.90 "HgN/A
10:58 PM
Fri, May 29
56 °FOvercast.6 mph70%29.86 "HgN/A
9:58 PM56 °FPartly sunny.6 mph70%29.86 "HgN/A
8:58 PM57 °FSunny.7 mph69%29.84 "HgN/A
7:58 PM60 °FSunny.8 mph65%29.85 "HgN/A
6:58 PM61 °FScattered clouds.18 mph65%29.83 "HgN/A
5:58 PM60 °FBroken clouds.20 mph77%29.83 "HgN/A
4:58 PM59 °FBroken clouds.6 mph88%29.84 "HgN/A
3:58 PM55 °FLight rain. Fog.5 mph100%29.87 "HgN/A
Weather by CustomWeather, © 2015

See weather overviewHow to use our weather pages